| time (UTC) | temp F | wind direction | speed MPH | gust MPH | rain 1hr in | rain 24hr in | rain mn in | humidity % | barometer mb |
| 20260508104835 | 70 | 339 | 3.0 | 6.0 | 0.00 | 0.09 | 0.09 | 99 | 1012.9 |
| 20260508104331 | 70 | 342 | 3.0 | 6.0 | 0.02 | 0.09 | 0.09 | 99 | 1012.9 |
| 20260508103829 | 70 | 313 | 3.0 | 4.0 | 0.02 | 0.09 | 0.09 | 99 | 1012.7 |
| 20260508103325 | 70 | 320 | 6.0 | 6.0 | 0.00 | 0.09 | 0.09 | 99 | 1012.6 |
| 20260508102823 | 70 | 324 | 4.0 | 7.0 | 0.02 | 0.09 | 0.09 | 99 | 1012.5 |
| 20260508102321 | 70 | 318 | 2.0 | 3.0 | 0.05 | 0.09 | 0.09 | 99 | 1012.4 |
| 20260508101818 | 70 | 340 | 2.0 | 3.0 | 0.05 | 0.09 | 0.09 | 99 | 1012.0 |
| 20260508101315 | 70 | 52 | 2.0 | 2.0 | 0.02 | 0.08 | 0.08 | 99 | 1011.9 |
| 20260508100812 | 70 | 12 | 1.0 | 3.0 | 0.00 | 0.08 | 0.08 | 99 | 1012.4 |
| 20260508100311 | 70 | 313 | 0.0 | 3.0 | 0.00 | 0.08 | 0.08 | 99 | 1012.3 |
| 20260508095806 | 70 | 9 | 1.0 | 2.0 | 0.00 | 0.08 | 0.08 | 99 | 1012.4 |
| 20260508095306 | 70 | 321 | 4.0 | 4.0 | 0.00 | 0.08 | 0.08 | 99 | 1012.6 |
| 20260508094800 | 70 | 330 | 3.0 | 4.0 | 0.00 | 0.08 | 0.08 | 99 | 1012.5 |
| 20260508094258 | 71 | 347 | 4.0 | 6.0 | 0.00 | 0.08 | 0.08 | 99 | 1012.9 |
| 20260508093755 | 71 | 288 | 2.0 | 3.0 | 0.00 | 0.08 | 0.08 | 99 | 1012.8 |
| 20260508093252 | 71 | 320 | 5.0 | 6.0 | 0.00 | 0.08 | 0.08 | 99 | 1012.7 |
| 20260508092749 | 71 | 295 | 6.0 | 8.0 | 0.00 | 0.08 | 0.08 | 99 | 1012.5 |
| 20260508092247 | 71 | 334 | 5.0 | 6.0 | 0.00 | 0.08 | 0.08 | 99 | 1012.5 |
| 20260508091745 | 71 | 310 | 3.0 | 7.0 | 0.00 | 0.08 | 0.08 | 99 | 1012.4 |
| 20260508091242 | 71 | 310 | 3.0 | 6.0 | 0.00 | 0.08 | 0.08 | 99 | 1012.1 |
| 20260508090739 | 71 | 329 | 3.0 | 4.0 | 0.00 | 0.08 | 0.08 | 99 | 1011.8 |
| 20260508090237 | 71 | 343 | 4.0 | 5.0 | 0.00 | 0.08 | 0.08 | 99 | 1011.8 |
| 20260508085732 | 71 | 333 | 4.0 | 6.0 | 0.00 | 0.08 | 0.08 | 99 | 1011.9 |
| 20260508085230 | 71 | 330 | 3.0 | 4.0 | 0.00 | 0.08 | 0.08 | 99 | 1012.5 |
| 20260508084725 | 71 | 359 | 6.0 | 8.0 | 0.00 | 0.08 | 0.08 | 99 | 1011.9 |
| 20260508084223 | 72 | 344 | 3.0 | 6.0 | 0.00 | 0.08 | 0.08 | 99 | 1012.0 |
| 20260508083721 | 72 | 309 | 4.0 | 6.0 | 0.00 | 0.08 | 0.08 | 99 | 1012.2 |
| 20260508083218 | 72 | 331 | 3.0 | 6.0 | 0.00 | 0.08 | 0.08 | 99 | 1012.5 |
| 20260508082713 | 72 | 355 | 4.0 | 6.0 | 0.00 | 0.08 | 0.08 | 99 | 1012.3 |
| 20260508082211 | 72 | 354 | 1.0 | 3.0 | 0.00 | 0.08 | 0.08 | 99 | 1012.6 |
| 20260508081708 | 73 | 341 | 0.0 | 4.0 | 0.00 | 0.08 | 0.08 | 99 | 1013.0 |
| 20260508081204 | 73 | 348 | 2.0 | 5.0 | 0.00 | 0.08 | 0.08 | 99 | 1012.9 |
| 20260508080702 | 73 | 320 | 1.0 | 3.0 | 0.00 | 0.08 | 0.08 | 99 | 1013.1 |
| 20260508080200 | 73 | 342 | 3.0 | 5.0 | 0.00 | 0.08 | 0.08 | 99 | 1013.0 |
| 20260508075656 | 73 | 6 | 2.0 | 5.0 | 0.00 | 0.08 | 0.08 | 99 | 1012.5 |
| 20260508075153 | 73 | 340 | 6.0 | 6.0 | 0.00 | 0.08 | 0.08 | 99 | 1012.3 |
| 20260508074651 | 73 | 20 | 2.0 | 3.0 | 0.00 | 0.08 | 0.08 | 99 | 1012.7 |
| 20260508074148 | 73 | 351 | 2.0 | 4.0 | 0.00 | 0.08 | 0.08 | 99 | 1012.8 |
| 20260508073645 | 73 | 345 | 3.0 | 6.0 | 0.00 | 0.08 | 0.08 | 99 | 1012.5 |
| 20260508073143 | 73 | 352 | 2.0 | 4.0 | 0.00 | 0.08 | 0.08 | 99 | 1012.3 |
| 20260508072638 | 73 | 12 | 2.0 | 4.0 | 0.00 | 0.08 | 0.08 | 99 | 1012.6 |
| 20260508072135 | 73 | 34 | 1.0 | 5.0 | 0.00 | 0.08 | 0.08 | 98 | 1012.6 |
| 20260508071633 | 73 | 58 | 2.0 | 3.0 | 0.00 | 0.08 | 0.08 | 98 | 1012.8 |
| 20260508071131 | 73 | 13 | 3.0 | 3.0 | 0.00 | 0.08 | 0.08 | 98 | 1013.1 |
| 20260508070628 | 73 | 68 | 0.0 | 4.0 | 0.00 | 0.08 | 0.08 | 98 | 1013.4 |
| 20260508070127 | 73 | 80 | 2.0 | 3.0 | 0.00 | 0.08 | 0.08 | 98 | 1013.8 |
| 20260508065624 | 73 | 67 | 2.0 | 3.0 | 0.00 | 0.08 | 0.08 | 98 | 1013.6 |
| 20260508065122 | 73 | 100 | 1.0 | 3.0 | 0.00 | 0.08 | 0.08 | 98 | 1013.9 |
| 20260508064619 | 73 | 57 | 0.0 | 3.0 | 0.00 | 0.08 | 0.08 | 98 | 1013.5 |
| 20260508064117 | 73 | 140 | 2.0 | 4.0 | 0.02 | 0.08 | 0.08 | 98 | 1013.5 |
| 20260508063614 | 73 | 134 | 0.0 | 4.0 | 0.02 | 0.07 | 0.07 | 98 | 1013.3 |
| 20260508063112 | 73 | 4 | 1.0 | 4.0 | 0.05 | 0.07 | 0.07 | 98 | 1013.5 |
| 20260508062609 | 73 | 331 | 0.0 | 3.0 | 0.09 | 0.07 | 0.07 | 98 | 1013.7 |
| 20260508062106 | 73 | 137 | 4.0 | 8.0 | 0.14 | 0.07 | 0.07 | 98 | 1013.4 |
| 20260508061604 | 73 | 133 | 9.0 | 10.0 | 0.19 | 0.06 | 0.06 | 98 | 1013.7 |
| 20260508061101 | 73 | 132 | 6.0 | 7.0 | 0.14 | 0.04 | 0.04 | 98 | 1014.1 |
| 20260508060558 | 72 | 71 | 2.0 | 3.0 | 0.14 | 0.03 | 0.03 | 98 | 1014.5 |
| 20260508060055 | 72 | 228 | 0.0 | 1.0 | 0.07 | 0.02 | 0.02 | 98 | 1015.1 |
| 20260508055550 | 73 | 309 | 1.0 | 5.0 | 0.05 | 0.01 | 0.01 | 98 | 1015.7 |
| 20260508055048 | 73 | 240 | 2.0 | 5.0 | 0.02 | 0.00 | 0.00 | 98 | 1015.8 |
| 20260508054544 | 73 | 261 | 4.0 | 4.0 | 0.00 | 0.00 | 0.00 | 98 | 1015.7 |
| 20260508054041 | 73 | 231 | 4.0 | 5.0 | 0.00 | 0.00 | 0.00 | 98 | 1015.9 |
| 20260508053538 | 72 | 233 | 6.0 | 6.0 | 0.00 | 0.00 | 0.00 | 98 | 1016.0 |
| 20260508053036 | 72 | 229 | 3.0 | 5.0 | 0.00 | 0.00 | 0.00 | 97 | 1015.4 |
| 20260508052533 | 72 | 146 | 0.0 | 2.0 | 0.00 | 0.00 | 0.00 | 97 | 1014.5 |
| 20260508052030 | 72 | 135 | 2.0 | 2.0 | 0.00 | 0.00 | 0.00 | 97 | 1013.9 |
| 20260508051526 | 72 | 33 | 3.0 | 5.0 | 0.00 | 0.00 | 0.00 | 97 | 1013.7 |
| 20260508051021 | 72 | 340 | 2.0 | 5.0 | 0.00 | 0.00 | 0.00 | 97 | 1013.6 |
| 20260508050518 | 72 | 103 | 4.0 | 5.0 | 0.00 | 0.00 | 0.00 | 97 | 1013.3 |
| 20260508050016 | 72 | 113 | 5.0 | 5.0 | 0.00 | 0.01 | 0.01 | 97 | 1013.5 |
| 20260508045512 | 72 | 73 | 3.0 | 6.0 | 0.00 | 0.01 | 0.01 | 97 | 1014.1 |
| 20260508045009 | 71 | 98 | 5.0 | 8.0 | 0.00 | 0.01 | 0.01 | 96 | 1014.1 |
| 20260508044506 | 71 | 60 | 2.0 | 7.0 | 0.00 | 0.01 | 0.01 | 96 | 1013.9 |
| 20260508044001 | 71 | 26 | 2.0 | 9.0 | 0.00 | 0.01 | 0.01 | 96 | 1013.8 |
| 20260508043454 | 71 | 48 | 4.0 | 6.0 | 0.00 | 0.01 | 0.01 | 96 | 1013.8 |
| 20260508042949 | 72 | 55 | 2.0 | 8.0 | 0.00 | 0.01 | 0.01 | 95 | 1013.9 |
| 20260508042448 | 72 | 72 | 3.0 | 6.0 | 0.02 | 0.01 | 0.01 | 95 | 1013.8 |
| 20260508041944 | 71 | 130 | 2.0 | 5.0 | 0.02 | 0.01 | 0.01 | 95 | 1013.7 |
| 20260508041441 | 71 | 16 | 1.0 | 4.0 | 0.00 | 0.00 | 0.00 | 95 | 1014.0 |
| 20260508040937 | 71 | 53 | 5.0 | 10.0 | 0.02 | 0.00 | 0.00 | 94 | 1014.1 |
| 20260508040435 | 72 | 61 | 3.0 | 6.0 | 0.02 | 0.00 | 0.00 | 94 | 1014.0 |
| 20260508035933 | 72 | 28 | 2.0 | 6.0 | 0.00 | 0.00 | 0.00 | 93 | 1014.0 |
| 20260508035429 | 72 | 35 | 6.0 | 7.0 | 0.00 | 0.00 | 0.00 | 93 | 1013.9 |
| 20260508034926 | 72 | 50 | 5.0 | 8.0 | 0.00 | 0.00 | 0.00 | 93 | 1014.2 |
| 20260508034424 | 72 | 57 | 5.0 | 8.0 | 0.00 | 0.00 | 0.00 | 92 | 1014.6 |
| 20260508033920 | 72 | 356 | 4.0 | 6.0 | 0.00 | 0.00 | 0.00 | 92 | 1014.3 |
| 20260508033418 | 72 | 48 | 3.0 | 5.0 | 0.00 | 0.00 | 0.00 | 92 | 1014.4 |
| 20260508032915 | 72 | 46 | 4.0 | 5.0 | 0.00 | 0.00 | 0.00 | 92 | 1014.4 |
| 20260508032413 | 72 | 80 | 5.0 | 9.0 | 0.00 | 0.00 | 0.00 | 92 | 1014.3 |
| 20260508031909 | 72 | 306 | 2.0 | 7.0 | 0.00 | 0.00 | 0.00 | 92 | 1014.3 |
| 20260508031407 | 72 | 32 | 3.0 | 4.0 | 0.00 | 0.00 | 0.00 | 92 | 1014.3 |
| 20260508030902 | 72 | 56 | 2.0 | 5.0 | 0.00 | 0.00 | 0.00 | 91 | 1014.2 |
| 20260508030359 | 72 | 19 | 5.0 | 6.0 | 0.00 | 0.00 | 0.00 | 91 | 1014.1 |
| 20260508025857 | 72 | 51 | 2.0 | 5.0 | 0.00 | 0.00 | 0.00 | 91 | 1014.0 |
| 20260508025353 | 72 | 44 | 5.0 | 12.0 | 0.00 | 0.00 | 0.00 | 91 | 1013.9 |
| 20260508024850 | 72 | 67 | 6.0 | 13.0 | 0.00 | 0.00 | 0.00 | 91 | 1013.6 |
| 20260508024346 | 72 | 41 | 5.0 | 9.0 | 0.00 | 0.00 | 0.00 | 91 | 1013.7 |
| 20260508023838 | 72 | 72 | 5.0 | 6.0 | 0.00 | 0.00 | 0.00 | 90 | 1013.8 |
| 20260508023335 | 72 | 71 | 6.0 | 10.0 | 0.00 | 0.00 | 0.00 | 90 | 1014.0 |
| 20260508022831 | 72 | 43 | 6.0 | 8.0 | 0.00 | 0.00 | 0.00 | 90 | 1014.0 |
| 20260508022327 | 72 | 16 | 4.0 | 10.0 | 0.00 | 0.00 | 0.00 | 90 | 1014.1 |
| 20260508021824 | 72 | 36 | 5.0 | 11.0 | 0.00 | 0.00 | 0.00 | 90 | 1014.1 |
| 20260508021320 | 72 | 46 | 4.0 | 9.0 | 0.00 | 0.00 | 0.00 | 90 | 1014.3 |
| 20260508020816 | 72 | 39 | 4.0 | 10.0 | 0.00 | 0.00 | 0.00 | 90 | 1014.0 |
| 20260508020314 | 72 | 358 | 2.0 | 10.0 | 0.00 | 0.00 | 0.00 | 90 | 1014.1 |
| 20260508015811 | 72 | 24 | 5.0 | 12.0 | 0.00 | 0.00 | 0.00 | 90 | 1013.7 |
| 20260508015309 | 72 | 48 | 7.0 | 11.0 | 0.00 | 0.00 | 0.00 | 90 | 1013.7 |
| 20260508014805 | 72 | 30 | 2.0 | 6.0 | 0.00 | 0.00 | 0.00 | 90 | 1013.8 |
| 20260508014302 | 73 | 9 | 4.0 | 14.0 | 0.00 | 0.00 | 0.00 | 89 | 1013.5 |
| 20260508013757 | 73 | 26 | 2.0 | 13.0 | 0.00 | 0.00 | 0.00 | 89 | 1013.8 |
| 20260508013254 | 73 | 24 | 4.0 | 9.0 | 0.00 | 0.00 | 0.00 | 89 | 1013.7 |
| 20260508012752 | 73 | 22 | 5.0 | 11.0 | 0.00 | 0.00 | 0.00 | 89 | 1013.5 |
| 20260508012249 | 73 | 49 | 7.0 | 12.0 | 0.00 | 0.00 | 0.00 | 89 | 1013.5 |
| 20260508011747 | 73 | 45 | 6.0 | 12.0 | 0.00 | 0.00 | 0.00 | 88 | 1013.8 |
| 20260508011244 | 73 | 5 | 4.0 | 6.0 | 0.00 | 0.00 | 0.00 | 88 | 1013.7 |
| 20260508010741 | 73 | 36 | 2.0 | 6.0 | 0.00 | 0.00 | 0.00 | 88 | 1013.2 |
| 20260508010239 | 73 | 355 | 4.0 | 9.0 | 0.00 | 0.00 | 0.00 | 88 | 1013.1 |
| 20260508005735 | 73 | 18 | 4.0 | 6.0 | 0.00 | 0.00 | 0.00 | 89 | 1012.9 |
| 20260508005232 | 73 | 53 | 6.0 | 12.0 | 0.00 | 0.00 | 0.00 | 89 | 1012.9 |
| 20260508004727 | 73 | 55 | 7.0 | 15.0 | 0.00 | 0.00 | 0.00 | 88 | 1012.8 |
| 20260508004224 | 73 | 62 | 4.0 | 13.0 | 0.00 | 0.00 | 0.00 | 87 | 1012.9 |
| 20260508003721 | 74 | 50 | 3.0 | 11.0 | 0.00 | 0.00 | 0.00 | 87 | 1012.7 |
| 20260508003219 | 74 | 15 | 5.0 | 10.0 | 0.00 | 0.00 | 0.00 | 86 | 1013.0 |
| 20260508002715 | 74 | 41 | 3.0 | 8.0 | 0.00 | 0.00 | 0.00 | 87 | 1013.1 |
| 20260508002212 | 74 | 82 | 4.0 | 10.0 | 0.00 | 0.00 | 0.00 | 87 | 1013.2 |
| 20260508001707 | 74 | 108 | 7.0 | 9.0 | 0.00 | 0.00 | 0.00 | 86 | 1013.2 |
| 20260508001158 | 74 | 337 | 5.0 | 11.0 | 0.00 | 0.00 | 0.00 | 86 | 1013.3 |
| 20260508000654 | 74 | 48 | 5.0 | 10.0 | 0.00 | 0.00 | 0.00 | 86 | 1013.1 |
| 20260508000152 | 74 | 29 | 7.0 | 11.0 | 0.00 | 0.00 | 0.00 | 85 | 1012.8 |
| 20260507235648 | 74 | 7 | 6.0 | 11.0 | 0.00 | 0.00 | 0.00 | 85 | 1012.8 |
| 20260507235145 | 75 | 352 | 4.0 | 10.0 | 0.00 | 0.00 | 0.00 | 85 | 1012.5 |
| 20260507234642 | 75 | 3 | 6.0 | 8.0 | 0.00 | 0.00 | 0.00 | 84 | 1012.8 |
| 20260507234138 | 75 | 42 | 7.0 | 13.0 | 0.00 | 0.00 | 0.00 | 84 | 1012.4 |
| 20260507233635 | 75 | 50 | 4.0 | 7.0 | 0.00 | 0.00 | 0.00 | 84 | 1012.3 |
| 20260507233133 | 75 | 60 | 3.0 | 10.0 | 0.00 | 0.00 | 0.00 | 84 | 1012.2 |
| 20260507232629 | 75 | 15 | 5.0 | 9.0 | 0.00 | 0.00 | 0.00 | 84 | 1012.4 |
| 20260507232127 | 75 | 27 | 3.0 | 9.0 | 0.00 | 0.00 | 0.00 | 84 | 1012.4 |
| 20260507231623 | 75 | 31 | 6.0 | 8.0 | 0.00 | 0.00 | 0.00 | 84 | 1012.3 |
| 20260507231120 | 75 | 52 | 3.0 | 7.0 | 0.00 | 0.00 | 0.00 | 84 | 1012.3 |
| 20260507230616 | 75 | 347 | 3.0 | 12.0 | 0.00 | 0.00 | 0.00 | 84 | 1012.2 |
| 20260507230114 | 75 | 75 | 4.0 | 6.0 | 0.00 | 0.00 | 0.00 | 83 | 1012.4 |
| 20260507225609 | 75 | 291 | 2.0 | 7.0 | 0.00 | 0.00 | 0.00 | 83 | 1012.5 |
| 20260507225106 | 75 | 27 | 4.0 | 11.0 | 0.00 | 0.00 | 0.00 | 83 | 1012.4 |
| 20260507224601 | 76 | 21 | 5.0 | 9.0 | 0.00 | 0.00 | 0.00 | 84 | 1012.5 |
| 20260507224058 | 76 | 22 | 4.0 | 8.0 | 0.00 | 0.00 | 0.00 | 83 | 1012.7 |
| 20260507223554 | 76 | 25 | 2.0 | 7.0 | 0.00 | 0.00 | 0.00 | 83 | 1012.7 |
| 20260507223051 | 76 | 40 | 6.0 | 9.0 | 0.00 | 0.00 | 0.00 | 83 | 1012.8 |
| 20260507222549 | 76 | 52 | 6.0 | 7.0 | 0.00 | 0.00 | 0.00 | 83 | 1012.6 |
| 20260507222045 | 76 | 48 | 6.0 | 6.0 | 0.00 | 0.00 | 0.00 | 83 | 1012.7 |
| 20260507221541 | 76 | 29 | 5.0 | 10.0 | 0.00 | 0.00 | 0.00 | 83 | 1012.7 |
| 20260507221038 | 76 | 34 | 3.0 | 7.0 | 0.00 | 0.00 | 0.00 | 83 | 1012.5 |
| 20260507220535 | 76 | 359 | 6.0 | 10.0 | 0.00 | 0.00 | 0.00 | 83 | 1012.5 |
| 20260507220033 | 76 | 31 | 4.0 | 10.0 | 0.00 | 0.00 | 0.00 | 83 | 1012.4 |
| 20260507215529 | 77 | 56 | 4.0 | 10.0 | 0.00 | 0.00 | 0.00 | 82 | 1012.7 |
| 20260507215027 | 77 | 25 | 4.0 | 5.0 | 0.00 | 0.00 | 0.00 | 83 | 1012.4 |
| 20260507214524 | 77 | 54 | 5.0 | 7.0 | 0.00 | 0.00 | 0.00 | 82 | 1012.6 |
| 20260507214020 | 77 | 41 | 4.0 | 6.0 | 0.00 | 0.00 | 0.00 | 83 | 1012.8 |
| 20260507213516 | 77 | 78 | 0.0 | 9.0 | 0.00 | 0.00 | 0.00 | 83 | 1012.6 |
| 20260507213013 | 77 | 31 | 8.0 | 9.0 | 0.00 | 0.00 | 0.00 | 81 | 1012.5 |
| 20260507212509 | 77 | 76 | 7.0 | 10.0 | 0.00 | 0.00 | 0.00 | 81 | 1012.5 |
| 20260507212006 | 78 | 113 | 8.0 | 8.0 | 0.00 | 0.00 | 0.00 | 81 | 1012.5 |
| 20260507211502 | 78 | 337 | 3.0 | 10.0 | 0.00 | 0.00 | 0.00 | 81 | 1012.6 |
| 20260507210959 | 77 | 35 | 8.0 | 14.0 | 0.00 | 0.00 | 0.00 | 81 | 1012.7 |
| 20260507210456 | 78 | 35 | 4.0 | 13.0 | 0.00 | 0.00 | 0.00 | 81 | 1012.6 |
| 20260507205953 | 78 | 21 | 3.0 | 11.0 | 0.00 | 0.00 | 0.00 | 81 | 1012.4 |
| 20260507205450 | 78 | 334 | 4.0 | 11.0 | 0.00 | 0.00 | 0.00 | 80 | 1012.7 |
| 20260507204946 | 79 | 33 | 2.0 | 10.0 | 0.00 | 0.00 | 0.00 | 79 | 1012.7 |
| 20260507204442 | 79 | 338 | 3.0 | 8.0 | 0.00 | 0.00 | 0.00 | 79 | 1012.9 |
| 20260507203940 | 79 | 32 | 6.0 | 10.0 | 0.00 | 0.00 | 0.00 | 79 | 1012.9 |
| 20260507203438 | 79 | 21 | 4.0 | 11.0 | 0.00 | 0.00 | 0.00 | 79 | 1013.0 |
| 20260507202934 | 79 | 23 | 5.0 | 13.0 | 0.00 | 0.00 | 0.00 | 79 | 1013.0 |
| 20260507202431 | 79 | 308 | 4.0 | 9.0 | 0.00 | 0.00 | 0.00 | 79 | 1013.2 |
| 20260507201926 | 79 | 44 | 9.0 | 11.0 | 0.00 | 0.00 | 0.00 | 78 | 1013.2 |
| 20260507201416 | 79 | 48 | 3.0 | 8.0 | 0.00 | 0.00 | 0.00 | 79 | 1013.3 |
| 20260507200913 | 79 | 35 | 3.0 | 10.0 | 0.00 | 0.00 | 0.00 | 80 | 1013.3 |
| 20260507200409 | 78 | 18 | 6.0 | 8.0 | 0.00 | 0.00 | 0.00 | 80 | 1013.4 |
| 20260507195905 | 78 | 358 | 5.0 | 10.0 | 0.00 | 0.00 | 0.00 | 81 | 1013.7 |
| 20260507195403 | 78 | 66 | 5.0 | 11.0 | 0.00 | 0.00 | 0.00 | 81 | 1013.7 |
| 20260507194859 | 78 | 35 | 5.0 | 11.0 | 0.00 | 0.00 | 0.00 | 81 | 1013.8 |
| 20260507194356 | 78 | 8 | 2.0 | 10.0 | 0.00 | 0.00 | 0.00 | 81 | 1013.6 |
| 20260507193852 | 78 | 3 | 4.0 | 7.0 | 0.00 | 0.00 | 0.00 | 81 | 1013.8 |
| 20260507193349 | 78 | 72 | 5.0 | 8.0 | 0.00 | 0.00 | 0.00 | 82 | 1013.9 |
| 20260507192845 | 78 | 7 | 5.0 | 9.0 | 0.00 | 0.00 | 0.00 | 82 | 1013.9 |
| 20260507192342 | 78 | 26 | 4.0 | 10.0 | 0.00 | 0.00 | 0.00 | 82 | 1014.0 |
| 20260507191838 | 78 | 337 | 3.0 | 10.0 | 0.00 | 0.00 | 0.00 | 82 | 1014.1 |
| 20260507191334 | 78 | 33 | 6.0 | 11.0 | 0.00 | 0.00 | 0.00 | 82 | 1014.0 |
| 20260507190831 | 78 | 344 | 3.0 | 6.0 | 0.00 | 0.00 | 0.00 | 83 | 1014.0 |
| 20260507190330 | 78 | 42 | 5.0 | 8.0 | 0.00 | 0.00 | 0.00 | 83 | 1014.1 |
| 20260507185829 | 77 | 16 | 4.0 | 10.0 | 0.00 | 0.00 | 0.00 | 83 | 1014.3 |
| 20260507185325 | 78 | 16 | 4.0 | 8.0 | 0.00 | 0.00 | 0.00 | 83 | 1014.2 |
| 20260507184822 | 78 | 24 | 4.0 | 5.0 | 0.00 | 0.00 | 0.00 | 83 | 1014.3 |
| 20260507184320 | 77 | 11 | 5.0 | 9.0 | 0.00 | 0.00 | 0.00 | 85 | 1014.2 |
| 20260507183816 | 76 | 347 | 5.0 | 9.0 | 0.00 | 0.00 | 0.00 | 85 | 1014.2 |
| 20260507183314 | 76 | 74 | 3.0 | 10.0 | 0.00 | 0.00 | 0.00 | 85 | 1014.5 |
| 20260507182811 | 76 | 44 | 8.0 | 9.0 | 0.00 | 0.00 | 0.00 | 86 | 1014.5 |
| 20260507182307 | 76 | 38 | 9.0 | 13.0 | 0.00 | 0.00 | 0.00 | 85 | 1014.8 |
| 20260507181803 | 75 | 58 | 4.0 | 12.0 | 0.00 | 0.00 | 0.00 | 86 | 1014.7 |
| 20260507181259 | 75 | 27 | 1.0 | 6.0 | 0.00 | 0.00 | 0.00 | 88 | 1014.8 |
| 20260507180756 | 75 | 325 | 4.0 | 6.0 | 0.00 | 0.00 | 0.00 | 87 | 1014.9 |
| 20260507180253 | 75 | 30 | 4.0 | 6.0 | 0.00 | 0.00 | 0.00 | 88 | 1015.1 |
| 20260507175748 | 75 | 13 | 2.0 | 12.0 | 0.00 | 0.00 | 0.00 | 88 | 1015.1 |
| 20260507175246 | 75 | 45 | 5.0 | 7.0 | 0.00 | 0.00 | 0.00 | 89 | 1015.0 |
| 20260507174743 | 74 | 23 | 6.0 | 9.0 | 0.00 | 0.00 | 0.00 | 89 | 1015.0 |
| 20260507174241 | 74 | 73 | 4.0 | 9.0 | 0.00 | 0.00 | 0.00 | 89 | 1015.2 |
| 20260507173739 | 74 | 10 | 5.0 | 10.0 | 0.00 | 0.00 | 0.00 | 89 | 1015.1 |
| 20260507173235 | 74 | 32 | 2.0 | 6.0 | 0.00 | 0.00 | 0.00 | 89 | 1015.1 |
| 20260507172731 | 74 | 46 | 9.0 | 9.0 | 0.00 | 0.00 | 0.00 | 89 | 1015.2 |
| 20260507172229 | 74 | 340 | 4.0 | 7.0 | 0.00 | 0.00 | 0.00 | 89 | 1015.2 |
| 20260507171728 | 74 | 55 | 6.0 | 10.0 | 0.00 | 0.00 | 0.00 | 89 | 1015.2 |
| 20260507171227 | 75 | 17 | 3.0 | 8.0 | 0.00 | 0.00 | 0.00 | 88 | 1015.3 |
| 20260507170723 | 75 | 36 | 2.0 | 6.0 | 0.00 | 0.00 | 0.00 | 88 | 1015.3 |
| 20260507170220 | 75 | 5 | 5.0 | 6.0 | 0.00 | 0.00 | 0.00 | 88 | 1015.2 |
| 20260507165715 | 75 | 340 | 2.0 | 8.0 | 0.00 | 0.00 | 0.00 | 88 | 1015.3 |
| 20260507165212 | 75 | 36 | 5.0 | 7.0 | 0.00 | 0.00 | 0.00 | 88 | 1015.2 |
| 20260507164708 | 75 | 31 | 6.0 | 9.0 | 0.00 | 0.00 | 0.00 | 88 | 1015.0 |
| 20260507164206 | 75 | 47 | 7.0 | 11.0 | 0.00 | 0.00 | 0.00 | 88 | 1014.9 |
| 20260507163702 | 75 | 50 | 3.0 | 9.0 | 0.00 | 0.00 | 0.00 | 88 | 1015.1 |
| 20260507163201 | 75 | 29 | 5.0 | 8.0 | 0.00 | 0.00 | 0.00 | 88 | 1015.0 |
| 20260507162656 | 75 | 13 | 3.0 | 9.0 | 0.00 | 0.00 | 0.00 | 88 | 1015.0 |
| 20260507162152 | 74 | 331 | 3.0 | 9.0 | 0.00 | 0.00 | 0.00 | 89 | 1015.1 |
| 20260507161648 | 74 | 37 | 5.0 | 6.0 | 0.00 | 0.00 | 0.00 | 89 | 1015.1 |
| 20260507161145 | 74 | 352 | 2.0 | 7.0 | 0.00 | 0.00 | 0.00 | 89 | 1015.0 |
| 20260507160642 | 74 | 40 | 0.0 | 9.0 | 0.00 | 0.00 | 0.00 | 89 | 1015.1 |
| 20260507160138 | 74 | 56 | 4.0 | 6.0 | 0.00 | 0.00 | 0.00 | 89 | 1015.0 |
| 20260507155634 | 74 | 328 | 8.0 | 10.0 | 0.00 | 0.00 | 0.00 | 90 | 1014.9 |
| 20260507155131 | 73 | 8 | 2.0 | 7.0 | 0.00 | 0.00 | 0.00 | 90 | 1015.0 |
| 20260507154627 | 73 | 23 | 6.0 | 8.0 | 0.00 | 0.00 | 0.00 | 90 | 1014.8 |
| 20260507154125 | 73 | 18 | 3.0 | 8.0 | 0.00 | 0.00 | 0.00 | 90 | 1014.9 |
| 20260507153621 | 73 | 349 | 3.0 | 8.0 | 0.00 | 0.00 | 0.00 | 90 | 1015.1 |
| 20260507153118 | 73 | 15 | 6.0 | 11.0 | 0.00 | 0.00 | 0.00 | 91 | 1015.0 |
| 20260507152614 | 73 | 353 | 2.0 | 9.0 | 0.00 | 0.00 | 0.00 | 91 | 1014.8 |
| 20260507152110 | 73 | 358 | 2.0 | 7.0 | 0.00 | 0.00 | 0.00 | 91 | 1014.7 |
| 20260507151606 | 73 | 349 | 2.0 | 5.0 | 0.00 | 0.00 | 0.00 | 91 | 1014.7 |
| 20260507151103 | 73 | 321 | 5.0 | 6.0 | 0.00 | 0.00 | 0.00 | 92 | 1014.8 |
| 20260507150600 | 73 | 43 | 12.0 | 12.0 | 0.00 | 0.00 | 0.00 | 92 | 1014.8 |
| 20260507150057 | 73 | 358 | 6.0 | 10.0 | 0.00 | 0.00 | 0.00 | 92 | 1014.5 |
| 20260507145551 | 73 | 26 | 4.0 | 6.0 | 0.00 | 0.00 | 0.00 | 92 | 1014.6 |
| 20260507145044 | 73 | 23 | 4.0 | 9.0 | 0.00 | 0.00 | 0.00 | 92 | 1014.6 |
| 20260507144540 | 73 | 7 | 4.0 | 11.0 | 0.00 | 0.00 | 0.00 | 93 | 1014.6 |
| 20260507144038 | 73 | 12 | 4.0 | 10.0 | 0.00 | 0.00 | 0.00 | 93 | 1014.5 |
| 20260507143534 | 73 | 33 | 6.0 | 9.0 | 0.00 | 0.00 | 0.00 | 93 | 1014.5 |
| 20260507143027 | 73 | 45 | 7.0 | 7.0 | 0.00 | 0.00 | 0.00 | 93 | 1014.4 |
| 20260507142521 | 73 | 36 | 5.0 | 10.0 | 0.00 | 0.00 | 0.00 | 93 | 1014.5 |
| 20260507142018 | 73 | 23 | 9.0 | 11.0 | 0.00 | 0.00 | 0.00 | 93 | 1014.5 |
| 20260507141515 | 73 | 353 | 5.0 | 8.0 | 0.00 | 0.00 | 0.00 | 93 | 1014.3 |
| 20260507141007 | 73 | 6 | 6.0 | 11.0 | 0.00 | 0.00 | 0.00 | 93 | 1014.3 |
| 20260507140503 | 73 | 59 | 4.0 | 11.0 | 0.00 | 0.00 | 0.00 | 93 | 1014.2 |
| 20260507140000 | 73 | 39 | 5.0 | 6.0 | 0.00 | 0.00 | 0.00 | 93 | 1014.1 |
| 20260507135457 | 73 | 32 | 8.0 | 9.0 | 0.00 | 0.00 | 0.00 | 93 | 1013.9 |
| 20260507134954 | 74 | 57 | 5.0 | 7.0 | 0.00 | 0.00 | 0.00 | 93 | 1013.9 |
| 20260507134450 | 74 | 29 | 2.0 | 9.0 | 0.00 | 0.00 | 0.00 | 94 | 1013.6 |
| 20260507133946 | 74 | 55 | 9.0 | 11.0 | 0.00 | 0.00 | 0.00 | 94 | 1013.5 |
| 20260507133443 | 74 | 32 | 7.0 | 10.0 | 0.00 | 0.00 | 0.00 | 94 | 1013.5 |
| 20260507132941 | 74 | 43 | 4.0 | 11.0 | 0.00 | 0.00 | 0.00 | 94 | 1013.4 |
| 20260507132437 | 74 | 22 | 5.0 | 9.0 | 0.00 | 0.00 | 0.00 | 93 | 1013.5 |
| 20260507131933 | 74 | 15 | 2.0 | 12.0 | 0.00 | 0.00 | 0.00 | 93 | 1013.4 |
| 20260507131431 | 74 | 353 | 3.0 | 9.0 | 0.00 | 0.00 | 0.00 | 93 | 1013.3 |
| 20260507130928 | 74 | 48 | 6.0 | 6.0 | 0.00 | 0.00 | 0.00 | 93 | 1013.2 |
| 20260507130425 | 74 | 16 | 5.0 | 7.0 | 0.00 | 0.00 | 0.00 | 93 | 1013.0 |
| 20260507125924 | 75 | 18 | 3.0 | 10.0 | 0.00 | 0.00 | 0.00 | 92 | 1012.9 |
| 20260507125421 | 75 | 38 | 5.0 | 7.0 | 0.00 | 0.00 | 0.00 | 91 | 1012.9 |
| 20260507124918 | 77 | 349 | 6.0 | 13.0 | 0.00 | 0.00 | 0.00 | 89 | 1012.9 |
| 20260507124414 | 80 | 353 | 4.0 | 11.0 | 0.00 | 0.00 | 0.00 | 90 | 1012.5 |
| 20260507123913 | 80 | 73 | 2.0 | 5.0 | 0.00 | 0.00 | 0.00 | 92 | 1012.3 |
| 20260507123410 | 80 | 38 | 2.0 | 4.0 | 0.00 | 0.00 | 0.00 | 92 | 1012.3 |
| 20260507122906 | 80 | 336 | 2.0 | 5.0 | 0.00 | 0.00 | 0.00 | 92 | 1012.4 |
| 20260507122401 | 80 | 29 | 3.0 | 4.0 | 0.00 | 0.00 | 0.00 | 92 | 1012.2 |
| 20260507121858 | 80 | 50 | 3.0 | 3.0 | 0.00 | 0.00 | 0.00 | 92 | 1012.3 |
| 20260507121353 | 80 | 56 | 2.0 | 3.0 | 0.00 | 0.00 | 0.00 | 92 | 1012.1 |
| 20260507120850 | 80 | 68 | 2.0 | 4.0 | 0.00 | 0.00 | 0.00 | 91 | 1012.2 |
| 20260507120346 | 80 | 68 | 2.0 | 3.0 | 0.00 | 0.00 | 0.00 | 91 | 1012.2 |
| 20260507115843 | 80 | 84 | 1.0 | 3.0 | 0.00 | 0.00 | 0.00 | 91 | 1012.1 |
| 20260507115338 | 80 | 143 | 0.0 | 3.0 | 0.00 | 0.00 | 0.00 | 91 | 1012.1 |
| 20260507114834 | 80 | 107 | 3.0 | 4.0 | 0.00 | 0.00 | 0.00 | 91 | 1011.9 |
| 20260507114332 | 80 | 151 | 3.0 | 6.0 | 0.00 | 0.00 | 0.00 | 91 | 1011.8 |
| 20260507113829 | 80 | 108 | 3.0 | 3.0 | 0.00 | 0.00 | 0.00 | 92 | 1011.7 |
| 20260507113326 | 80 | 93 | 4.0 | 5.0 | 0.00 | 0.00 | 0.00 | 92 | 1011.6 |
| 20260507112824 | 80 | 121 | 4.0 | 5.0 | 0.00 | 0.00 | 0.00 | 92 | 1011.9 |
| 20260507112320 | 80 | 134 | 2.0 | 3.0 | 0.00 | 0.00 | 0.00 | 92 | 1011.8 |
| 20260507111818 | 80 | 116 | 1.0 | 3.0 | 0.00 | 0.00 | 0.00 | 92 | 1011.2 |
| 20260507111314 | 80 | 30 | 5.0 | 5.0 | 0.00 | 0.00 | 0.00 | 92 | 1011.3 |
| 20260507110811 | 80 | 60 | 2.0 | 4.0 | 0.00 | 0.00 | 0.00 | 92 | 1011.2 |
| 20260507110307 | 80 | 38 | 4.0 | 4.0 | 0.00 | 0.00 | 0.00 | 92 | 1011.3 |
| 20260507105804 | 80 | 42 | 3.0 | 3.0 | 0.00 | 0.00 | 0.00 | 92 | 1011.5 |
| 20260507105300 | 80 | 352 | 1.0 | 2.0 | 0.00 | 0.00 | 0.00 | 92 | 1011.3 |